• In France
  • List of Countries
  • For 7 days
  • Water Temperature
  • Satellite Maps
  • Weather Map
  • Weather Widgets
  • user-avatar
    Login

    Hourly Weather Kitzbuhel

    Today, 18 October, Thursday

    Time Temperature Precipitation Wind Pressure Humidity
    00:00 +9°C° 0 mm 1 mps 678 mmHg 88%
    01:00 +9°C° 0 mm 1 mps 678 mmHg 87%
    02:00 +9°C° 0 mm 1 mps 678 mmHg 87%
    03:00 +9°C° 0 mm 1 mps 677 mmHg 87%
    04:00 +8°C° 0 mm 1 mps 677 mmHg 87%
    05:00 +8°C° 0 mm 1 mps 677 mmHg 87%
    06:00 +8°C° 0 mm 1 mps 677 mmHg 87%
    07:00 +9°C° 0 mm 1 mps 678 mmHg 84%
    08:00 +11°C° 0 mm 1 mps 678 mmHg 77%
    09:00 +13°C° 0 mm 1 mps 678 mmHg 70%
    10:00 +16°C° 0 mm 1 mps 679 mmHg 63%
    11:00 +16°C° 0 mm 1 mps 679 mmHg 61%
    12:00 +18°C° 0 mm 1 mps 679 mmHg 59%
    13:00 +19°C° 0 mm 1 mps 679 mmHg 57%
    14:00 +18°C° 0 mm 1 mps 679 mmHg 62%
    15:00 +16°C° 0 mm 1 mps 678 mmHg 67%
    16:00 +15°C° 0 mm 1 mps 678 mmHg 72%
    17:00 +14°C° 0 mm 1 mps 678 mmHg 80%
    18:00 +12°C° 0 mm 1 mps 678 mmHg 87%
    19:00 +10°C° 0 mm 1 mps 678 mmHg 95%
    20:00 +10°C° 0 mm 1 mps 678 mmHg 95%
    21:00 +9°C° 0 mm 1 mps 678 mmHg 96%
    22:00 +9°C° 0 mm 1 mps 678 mmHg 96%
    23:00 +9°C° 0 mm 1 mps 678 mmHg 96%

    Tomorrow, 19 October, Friday

    Time Temperature Precipitation Wind Pressure Humidity
    00:00 +8°C° 0 mm 1 mps 678 mmHg 96%
    01:00 +8°C° 0 mm 1 mps 678 mmHg 96%
    02:00 +8°C° 0 mm 1 mps 678 mmHg 95%
    03:00 +8°C° 0 mm 1 mps 678 mmHg 94%
    04:00 +7°C° 0 mm 1 mps 678 mmHg 94%
    05:00 +7°C° 0 mm 1 mps 678 mmHg 93%
    06:00 +7°C° 0 mm 1 mps 678 mmHg 92%
    07:00 +7°C° 0 mm 1 mps 679 mmHg 91%
    08:00 +10°C° 0 mm 1 mps 679 mmHg 80%
    09:00 +12°C° 0 mm 1 mps 680 mmHg 69%
    10:00 +15°C° 0 mm 1 mps 680 mmHg 58%
    11:00 +16°C° 0 mm 1 mps 681 mmHg 55%
    12:00 +16°C° 0 mm 1 mps 681 mmHg 52%
    13:00 +18°C° 0 mm 1 mps 681 mmHg 50%
    14:00 +18°C° 0 mm 1 mps 681 mmHg 56%
    15:00 +16°C° 0 mm 1 mps 680 mmHg 62%
    16:00 +15°C° 0 mm 1 mps 680 mmHg 68%
    17:00 +13°C° 0 mm 1 mps 680 mmHg 76%
    18:00 +11°C° 0 mm 1 mps 680 mmHg 84%
    19:00 +9°C° 0 mm 1 mps 680 mmHg 93%
    20:00 +8°C° 0 mm 1 mps 680 mmHg 92%
    21:00 +8°C° 0 mm 1 mps 681 mmHg 92%
    22:00 +8°C° 0 mm 1 mps 681 mmHg 92%
    23:00 +8°C° 0 mm 1 mps 681 mmHg 91%

    Day after tomorrow, 20 October, Saturday

    Time Temperature Precipitation Wind Pressure Humidity
    00:00 +7°C° 0 mm 1 mps 681 mmHg 90%
    01:00 +7°C° 0 mm 1 mps 681 mmHg 89%
    02:00 +7°C° 0 mm 1 mps 681 mmHg 87%
    03:00 +7°C° 0 mm 1 mps 681 mmHg 86%
    04:00 +7°C° 0 mm 1 mps 681 mmHg 85%
    05:00 +7°C° 0 mm 1 mps 682 mmHg 83%
    06:00 +7°C° 0 mm 1 mps 682 mmHg 81%
    07:00 +6°C° 0 mm 1 mps 682 mmHg 80%
    08:00 +9°C° 0 mm 1 mps 683 mmHg 71%
    09:00 +12°C° 0 mm 1 mps 683 mmHg 63%
    10:00 +14°C° 0 mm 1 mps 684 mmHg 54%
    11:00 +15°C° 0 mm 1 mps 684 mmHg 53%
    12:00 +15°C° 0 mm 1 mps 684 mmHg 52%
    13:00 +16°C° 0 mm 2 mps 684 mmHg 51%
    14:00 +15°C° 0 mm 2 mps 684 mmHg 57%
    15:00 +14°C° 0 mm 2 mps 684 mmHg 64%
    16:00 +14°C° 0 mm 2 mps 684 mmHg 70%
    17:00 +12°C° 0 mm 1 mps 684 mmHg 78%
    18:00 +10°C° 0 mm 1 mps 683 mmHg 87%
    19:00 +8°C° 0 mm 1 mps 683 mmHg 95%
    20:00 +8°C° 0 mm 1 mps 684 mmHg 94%
    21:00 +8°C° 0 mm 1 mps 684 mmHg 93%
    22:00 +8°C° 0 mm 1 mps 684 mmHg 92%
    23:00 +7°C° 0 mm 1 mps 684 mmHg 91%

    21 October, Sunday

    Time Temperature Precipitation Wind Pressure Humidity
    00:00 +7°C° 0 mm 1 mps 684 mmHg 90%
    01:00 +7°C° 0 mm 1 mps 684 mmHg 89%
    02:00 +6°C° 0 mm 1 mps 684 mmHg 88%
    03:00 +6°C° 0 mm 1 mps 684 mmHg 86%
    04:00 +5°C° 0 mm 1 mps 683 mmHg 85%
    05:00 +5°C° 0 mm 1 mps 683 mmHg 81%
    06:00 +5°C° 0 mm 1 mps 684 mmHg 77%
    07:00 +5°C° 0 mm 1 mps 684 mmHg 74%
    08:00 +8°C° 0 mm 1 mps 684 mmHg 65%
    09:00 +11°C° 0 mm 1 mps 684 mmHg 56%
    10:00 +14°C° 0 mm 1 mps 685 mmHg 48%
    11:00 +14°C° 0 mm 1 mps 684 mmHg 45%
    12:00 +15°C° 0 mm 1 mps 684 mmHg 43%
    13:00 +16°C° 0 mm 2 mps 684 mmHg 40%
    14:00 +16°C° 0 mm 2 mps 684 mmHg 47%
    15:00 +15°C° 0 mm 1 mps 683 mmHg 54%
    16:00 +14°C° 0 mm 1 mps 683 mmHg 60%
    17:00 +12°C° 0 mm 1 mps 682 mmHg 67%
    18:00 +10°C° 0 mm 1 mps 682 mmHg 74%
    19:00 +8°C° 0 mm 1 mps 682 mmHg 81%
    20:00 +8°C° 0 mm 1 mps 682 mmHg 80%
    21:00 +8°C° 0 mm 1 mps 682 mmHg 78%
    22:00 +8°C° 0 mm 1 mps 682 mmHg 76%
    23:00 +7°C° 0 mm 1 mps 682 mmHg 75%

    22 October, Monday

    Time Temperature Precipitation Wind Pressure Humidity
    00:00 +7°C° 0 mm 1 mps 682 mmHg 73%
    01:00 +7°C° 0 mm 1 mps 682 mmHg 72%
    02:00 +7°C° 0 mm 1 mps 682 mmHg 71%
    03:00 +7°C° 0 mm 1 mps 682 mmHg 70%
    04:00 +7°C° 0 mm 1 mps 681 mmHg 69%
    05:00 +7°C° 0 mm 1 mps 681 mmHg 68%
    06:00 +6°C° 0 mm 1 mps 681 mmHg 68%
    07:00 +6°C° 0 mm 1 mps 681 mmHg 68%
    08:00 +9°C° 0 mm 1 mps 682 mmHg 62%
    09:00 +11°C° 0 mm 1 mps 682 mmHg 56%
    10:00 +14°C° 0 mm 1 mps 683 mmHg 50%
    11:00 +14°C° 0 mm 2 mps 683 mmHg 48%
    12:00 +15°C° 0 mm 2 mps 683 mmHg 46%
    13:00 +15°C° 0 mm 2 mps 683 mmHg 45%
    14:00 +15°C° 0 mm 2 mps 682 mmHg 50%
    15:00 +14°C° 0 mm 2 mps 682 mmHg 56%
    16:00 +13°C° 0 mm 2 mps 682 mmHg 62%
    17:00 +11°C° 0 mm 1 mps 681 mmHg 71%
    18:00 +9°C° 0 mm 1 mps 681 mmHg 79%
    19:00 +7°C° 0 mm 1 mps 681 mmHg 88%
    20:00 +6°C° 0 mm 1 mps 681 mmHg 89%
    21:00 +6°C° 0 mm 1 mps 681 mmHg 90%
    22:00 +5°C° 0 mm 2 mps 681 mmHg 90%
    23:00 +4°C° 0 mm 2 mps 681 mmHg 91%

    23 October, Tuesday

    Time Temperature Precipitation Wind Pressure Humidity
    00:00 +4°C° 0 mm 2 mps 681 mmHg 91%
    01:00 +4°C° 0 mm 2 mps 681 mmHg 92%
    02:00 +4°C° 0 mm 2 mps 681 mmHg 91%
    03:00 +4°C° 0 mm 2 mps 680 mmHg 91%
    04:00 +3°C° 0 mm 2 mps 680 mmHg 91%
    05:00 +4°C° 0 mm 2 mps 680 mmHg 91%
    06:00 +4°C° 0 mm 2 mps 680 mmHg 91%
    07:00 +4°C° 0 mm 2 mps 680 mmHg 91%
    08:00 +5°C° 0.1 mm 2 mps 680 mmHg 86%
    09:00 +6°C° 0.1 mm 2 mps 679 mmHg 81%
    10:00 +7°C° 0.1 mm 2 mps 679 mmHg 76%
    11:00 +7°C° 0.4 mm 2 mps 679 mmHg 77%
    12:00 +7°C° 0.4 mm 3 mps 678 mmHg 78%
    13:00 +7°C° 0.4 mm 3 mps 678 mmHg 80%
    14:00 +5°C° 0.8 mm 3 mps 677 mmHg 84%
    15:00 +4°C° 0.8 mm 3 mps 677 mmHg 88%
    16:00 +4°C° 0.8 mm 3 mps 676 mmHg 92%
    17:00 +3°C° 1 mm 3 mps 676 mmHg 92%
    18:00 +3°C° 1 mm 3 mps 676 mmHg 93%
    19:00 +3°C° 1 mm 3 mps 676 mmHg 93%
    20:00 +3°C° 2 mm 3 mps 675 mmHg 94%
    21:00 +3°C° 2 mm 3 mps 675 mmHg 94%
    22:00 +3°C° 2 mm 3 mps 675 mmHg 95%
    23:00 +2°C° 1.7 mm 3 mps 675 mmHg 95%
    Show more